Flag for Germany Weather past 2 weeks in Görlitz, Saxony, Germany

Now
65 °F

Overcast.


Feels Like: 65 °F
Forecast: 52 / 68 °F
Wind: 7 mph from Southwest

Location: Goerlitz

Current Time: Apr 25, 2015 at 6:40:21 PM

Latest Report: Apr 25, 2015 at 6:00 PM


Visibility: 17 mi

Pressure: 29.77 "Hg

Humidity: 39%

Dew point: 39 °F

Location of GörlitzLocation

Historic Weather in Görlitz — Graph

°F

Görlitz temperature yesterday

Maximum temperature yesterday: 66 °F (at 6:00 PM)
Minimum temperature yesterday: 40 °F (at 6:00 AM)
Average temperature yesterday: 55 °F

Past Weeks' High & Low Weather Summary

 TemperatureHumidityPressure
High70 °F (Apr 11, 4:00 PM)100% (Apr 23, 5:00 AM)30.47 "Hg (Apr 23, 5:00 AM)
Low31 °F (Apr 23, 6:00 AM)19% (Apr 21, 4:00 PM)29.77 "Hg (Apr 25, 5:00 PM)
Average50 °F62%30.13 "Hg
* Reported Apr 10 5:00 PM — Apr 25 5:00 PM, Görlitz, Weather by CustomWeather, © 2015

Note: Actual official high and low records may vary slightly from our data, if they occured in-between our weather recording intervals... More about our weather records

Advertising

Görlitz weather history for previous 24 hours

 ConditionsComfort  
Time TempWeatherWind HumidityBarometerVisibility
5:00 PM
Sat, Apr 25
66 °FOvercast.8 mph36%29.77 "Hg14 mi
4:00 PM67 °FOvercast.6 mph33%29.77 "Hg13 mi
3:00 PM67 °FOvercast.8 mph36%29.79 "Hg16 mi
2:00 PM66 °FOvercast.7 mph36%29.81 "Hg14 mi
1:00 PM66 °FOvercast.8 mph41%29.83 "Hg13 mi
12:00 PM65 °FOvercast.8 mph43%29.85 "Hg13 mi
11:00 AM63 °FOvercast.7 mph49%29.86 "Hg13 mi
10:00 AM60 °FOvercast.9 mph52%29.87 "Hg12 mi
9:00 AM58 °FPartly sunny.8 mph56%29.87 "Hg11 mi
8:00 AM55 °FScattered clouds.7 mph61%29.88 "Hg11 mi
7:00 AM52 °FPassing clouds.5 mph68%29.88 "Hg13 mi
6:00 AM47 °FPassing clouds.3 mph78%29.89 "Hg9 mi
5:00 AM50 °FPassing clouds.1 mph76%29.89 "Hg9 mi
3:00 AM51 °FPassing clouds.1 mph72%29.89 "Hg9 mi
1:00 AM51 °FPassing clouds.2 mph71%29.91 "Hg11 mi
12:00 AM52 °FPassing clouds.1 mph67%29.91 "Hg11 mi
11:00 PM
Fri, Apr 24
54 °FPassing clouds.1 mph62%29.91 "Hg11 mi
10:00 PM56 °FPassing clouds.2 mph58%29.90 "Hg12 mi
9:00 PM59 °FPassing clouds.6 mph53%29.90 "Hg16 mi
8:00 PM61 °FScattered clouds.2 mph47%29.88 "Hg17 mi
7:00 PM64 °FScattered clouds.1 mph41%29.88 "Hg16 mi
6:00 PM66 °FPassing clouds.2 mph37%29.88 "Hg15 mi
Weather by CustomWeather, © 2015

See weather overviewHow to use our weather pages